Kezdőlap
METAR-TAF:

METAR-TAF

Repülőterek :

Harlan Municipal Airport

Harlan, Iowa, Amerikai Egyesült Államok

földrajzi szélesség: 41-35-04N, földrajzi hosszúság: 095-20-23W, magasság: 375 m

Jelenlegi meteorológiai megfigyelések

A jelentés 31 perccel ezelõtt készült, 22:15 UTC
Dél-délkeleti szél 8 kt széllökések: 14 kt
Hőmérséklet 20°C
Páratartalom 30%
Légköri nyomás 1020 hPa
Látótávolság: 16.1 km
Derült ég

METAR: KHNR 242215Z AUTO 16008G14KT 10SM CLR 20/02 A3013 RMK A01

Idő: 17:46 (22:46 UTC)


TAF: hiányzik

Meteorológiai megfigyelések és előrejelzések több, mint 4000 repülőtéren (METAR és TAF jelentéseket).

A térképen piros és sárga pontok jelzik az elérhető meteorológiai állomásokat.

Mozgassa az egeret a pont fölött, hogy megjelenjen az állomás neve.

Azután kattintson az időjárási megfigyelések és előrejelzések megtekintéséhez.

A térkép megváltoztatása: kattintson a fekete keresztel jelölt zöld gombra ráközelítéshez, a vonallal jelölt zöld gombra távolításhoz, vagy a zöld nyilakra a szomszédos térképek eléréséhez.


METAR-TAF: